Location: Unspecified
(0.0000°N, 0.0000°E)
Time: 19:02:56
(UTC+00:00)

Courier 1B - Visible Passes

Search period start: 18 April 2019 00:00
Search period end: 28 April 2019 00:00
Orbit: 962 x 1209 km, 28.3° (Epoch: 17 April)

Date Brightness Start Highest point End Pass type
(mag) Time Alt. Az. Time Alt. Az. Time Alt. Az.
18 Apr 7.8 04:06:47 40° NNW 04:09:00 60° NNE 04:15:36 10° ESE visible
18 Apr 10.0 19:27:59 10° NW 19:31:52 15° NNW 19:35:39 10° N visible
19 Apr 8.8 03:17:08 34° ENE 03:17:08 34° ENE 03:21:25 10° E visible
19 Apr 7.8 05:04:05 15° WNW 05:09:16 52° SSW 05:15:53 10° SE visible
19 Apr 9.9 18:32:21 10° WNW 18:37:44 20° NNW 18:42:55 10° NNE visible
20 Apr 7.4 04:14:24 60° W 04:15:30 73° SSW 04:22:11 10° SE visible
21 Apr 8.7 03:24:41 35° ESE 03:24:41 35° ESE 03:28:22 10° ESE visible
21 Apr 8.5 05:11:38 15° WSW 05:15:56 28° SSW 05:21:36 10° SSE visible
21 Apr 10.2 18:41:54 10° NW 18:44:41 12° NNW 18:47:25 10° N visible
22 Apr 8.0 04:21:52 39° SSW 04:22:05 39° SSW 04:28:12 10° SE visible
23 Apr 9.1 03:32:04 25° SE 03:32:04 25° SE 03:34:42 10° SE visible
23 Apr 9.2 05:19:01 10° WSW 05:22:48 16° SSW 05:26:38 10° SSE visible
24 Apr 8.8 04:29:06 21° SSW 04:29:06 21° SSW 04:33:40 10° SSE visible
25 Apr 9.5 03:39:09 15° SSE 03:39:09 15° SSE 03:40:30 10° SSE visible
26 Apr 9.4 04:36:03 12° SSW 04:36:03 12° SSW 04:38:00 10° S visible
